{"data":{"norad_id":65165,"intl_designator":"2025-174B","name":"HULIANWANG DIGUI-59","alt_names":[],"object_type":"PAYLOAD","status":"ACTIVE","operator":null,"country":"PRC","launch_date":"2025-08-13","launch_site_code":"WSC","launch_vehicle":null,"mission":null,"orbit_class":"UNKNOWN","rcs_meters":null,"size_class":null,"mass_kg":null,"dimensions":null,"purposes":[],"wikipedia_slug":null,"has_3d_model":false,"image_url":null,"decayed_at":null,"tle_current":{"epoch":"2026-09-21T21:37:01.067520Z","epoch_age_seconds":44176,"freshness":"FRESH","line1":"1 65165U 25174B   26264.90070680  .00000060  00000+0  10648-3 0  9999","line2":"2 65165  86.4953 219.2129 0002108  75.9175 284.2193 13.24400278 53593","mean_motion":13.24400278,"eccentricity":0.0002108,"inclination_deg":86.4953,"raan_deg":219.2129,"arg_perigee_deg":75.9175,"mean_anomaly_deg":284.2193,"bstar":0.00010648,"rev_number":5359,"period_min":108.72845799871,"perigee_km":1166.3683973297,"apogee_km":1169.5498314515,"semimajor_km":7546.0961143906,"source":"CELESTRAK","updated_at":"2026-09-22T09:00:30.162895Z"}}}